TimeEST,TemperatureF,Dew PointF,Humidity,Sea Level PressureIn,VisibilityMPH,Wind Direction,Wind SpeedMPH,Gust SpeedMPH,PrecipitationIn,Events,Conditions,WindDirDegrees,DateUTC
12:53 AM,69.1,66.0,90,30.07,10.0,NE,4.6,-,N/A,,Overcast,40,2012-11-15 05:53:00
1:53 AM,69.1,66.0,90,30.07,10.0,North,4.6,-,N/A,,Overcast,10,2012-11-15 06:53:00
2:53 AM,66.9,66.0,97,30.05,10.0,NNE,5.8,-,N/A,,Partly Cloudy,30,2012-11-15 07:53:00
3:53 AM,66.0,64.9,96,30.05,10.0,NE,5.8,-,N/A,,Clear,40,2012-11-15 08:53:00
4:53 AM,64.9,64.9,100,30.06,10.0,NE,4.6,-,N/A,,Clear,40,2012-11-15 09:53:00
5:53 AM,64.0,64.0,100,30.06,9.0,ENE,5.8,-,N/A,,Clear,60,2012-11-15 10:53:00
6:26 AM,64.4,64.4,100,30.07,7.0,ENE,5.8,-,N/A,,Scattered Clouds,60,2012-11-15 11:26:00
6:32 AM,64.4,64.4,100,30.07,2.5,ENE,5.8,-,N/A,,Mostly Cloudy,60,2012-11-15 11:32:00
6:40 AM,64.4,64.4,100,30.07,1.2,NE,4.6,-,N/A,,Mostly Cloudy,40,2012-11-15 11:40:00
6:53 AM,63.0,63.0,100,30.07,1.2,NE,3.5,-,N/A,,Overcast,50,2012-11-15 11:53:00
7:06 AM,64.4,64.4,100,30.07,0.8,NE,3.5,-,N/A,,Overcast,40,2012-11-15 12:06:00
7:28 AM,64.4,64.4,100,30.08,2.0,NE,4.6,-,N/A,,Overcast,50,2012-11-15 12:28:00
7:49 AM,64.4,64.4,100,30.09,4.0,NE,5.8,-,N/A,,Scattered Clouds,50,2012-11-15 12:49:00
7:53 AM,64.9,64.9,100,30.09,4.0,NE,4.6,-,N/A,,Scattered Clouds,40,2012-11-15 12:53:00
8:53 AM,70.0,66.9,90,30.10,10.0,NE,5.8,-,N/A,,Clear,50,2012-11-15 13:53:00
9:53 AM,75.9,66.0,71,30.12,10.0,ENE,4.6,-,N/A,,Clear,70,2012-11-15 14:53:00
10:53 AM,79.0,63.0,58,30.11,10.0,North,4.6,-,N/A,,Clear,360,2012-11-15 15:53:00
11:53 AM,79.0,66.0,64,30.10,10.0,WNW,9.2,-,N/A,,Scattered Clouds,300,2012-11-15 16:53:00
12:53 PM,78.1,66.9,68,30.07,10.0,WNW,11.5,-,N/A,,Scattered Clouds,300,2012-11-15 17:53:00
1:53 PM,78.1,68.0,71,30.05,10.0,WNW,9.2,-,N/A,,Scattered Clouds,300,2012-11-15 18:53:00
2:53 PM,77.0,66.0,69,30.04,10.0,WNW,10.4,-,N/A,,Scattered Clouds,300,2012-11-15 19:53:00
3:53 PM,75.9,66.9,74,30.04,10.0,NW,11.5,-,N/A,,Scattered Clouds,310,2012-11-15 20:53:00
4:53 PM,75.0,68.0,79,30.04,10.0,NW,8.1,-,N/A,,Partly Cloudy,310,2012-11-15 21:53:00
5:53 PM,73.0,66.9,81,30.05,9.0,NNW,5.8,-,N/A,,Clear,330,2012-11-15 22:53:00
6:53 PM,72.0,66.9,84,30.07,9.0,NNW,3.5,-,N/A,,Clear,330,2012-11-15 23:53:00
7:53 PM,71.1,66.0,84,30.08,9.0,Calm,Calm,-,N/A,,Clear,0,2012-11-16 00:53:00
8:53 PM,70.0,66.0,87,30.09,9.0,NNE,4.6,-,N/A,,Clear,20,2012-11-16 01:53:00
9:53 PM,68.0,64.9,90,30.09,9.0,NE,8.1,-,N/A,,Clear,40,2012-11-16 02:53:00
10:53 PM,66.9,64.0,90,30.09,10.0,NE,8.1,-,N/A,,Scattered Clouds,40,2012-11-16 03:53:00
11:03 PM,66.2,64.4,94,30.09,10.0,NE,9.2,-,N/A,,Mostly Cloudy,40,2012-11-16 04:03:00
11:14 PM,66.2,64.4,94,30.09,10.0,NE,10.4,-,N/A,,Scattered Clouds,40,2012-11-16 04:14:00
11:41 PM,66.2,64.4,94,30.09,9.0,NE,13.8,-,N/A,,Scattered Clouds,40,2012-11-16 04:41:00
11:51 PM,66.2,64.4,94,30.09,9.0,NE,8.1,-,N/A,,Mostly Cloudy,40,2012-11-16 04:51:00
11:53 PM,66.0,64.9,96,30.09,9.0,NE,8.1,-,N/A,,Mostly Cloudy,40,2012-11-16 04:53:00